{"data":{"norad_id":49434,"intl_designator":"2021-104AC","name":"STARLINK-3134","alt_names":[],"object_type":"PAYLOAD","status":"ACTIVE","operator":null,"country":"US","launch_date":"2021-11-13","launch_site_code":"AFETR","launch_vehicle":null,"mission":null,"orbit_class":"UNKNOWN","rcs_meters":null,"size_class":null,"mass_kg":null,"dimensions":null,"purposes":["comms"],"wikipedia_slug":null,"has_3d_model":false,"image_url":null,"decayed_at":null,"tle_current":{"epoch":"2026-05-24T23:41:44.728800Z","epoch_age_seconds":66299,"freshness":"FRESH","line1":"1 49434U 21104AC  26144.98732325  .00003541  00000+0  24020-3 0  9991","line2":"2 49434  53.2172 246.7661 0001022  80.2175 279.8933 15.08880122251235","mean_motion":15.08880122,"eccentricity":0.0001022,"inclination_deg":53.2172,"raan_deg":246.7661,"arg_perigee_deg":80.2175,"mean_anomaly_deg":279.8933,"bstar":0.0002402,"rev_number":25123,"period_min":95.435016937681,"perigee_km":538.91375993611,"apogee_km":540.32774962119,"semimajor_km":6917.7577547787,"source":"CELESTRAK","updated_at":"2026-05-25T13:38:16.800140Z"}}}